Location: Berg
(48.5667°N, 13.9833°E)
Time: 13:46:11
(UTC+00:00)

SL-8 Rocket - Pass Details

Date: 09 April 2020
Orbit: 957 x 990 km, 82.9° (Epoch: 25 May)

Event Time Altitude Azimuth Distance (km) Brightness Sun altitude
Rises 19:21:20 0° 351° (N) 3,710 7.7 -15.2°
Reaches altitude 10° 19:23:53 10° 354° (N) 2,760 6.9 -15.6°
Maximum altitude 19:30:14 75° 80° (E) 1,028 4.0 -16.4°
Enters shadow 19:35:13 17° 164° (SSE) 2,264 5.5 -17.1°
